Imperial, NE

10:57 PM MDT on September 28, 2016 (GMT -0600)
Imperial Municipal

Weather History for KIML - October, 2011

Change the Weather History Date:

Tuesday, October 25, 2011

  Actual Average Record
Temperature  
Mean Temperature 50 °F 47 °F  
Max Temperature 61 °F 61 °F 87 °F (1959)
Min Temperature 39 °F 33 °F 13 °F (1942)
Degree Days  
Heating Degree Days 15 18  
Month to date heating degree days 240 329  
Cooling Degree Days 0 0  
Month to date cooling degree days 17 3  
Year to date cooling degree days 1096 960  
Moisture  
Dew Point 35 °F    
Average Humidity 65    
Maximum Humidity 92    
Minimum Humidity 38    
Precipitation  
Precipitation 0.22 in 0.04 in 1.80 in (1918)
Snow  
Snow 0.00 in - - ()
Snow Depth 0.00 in    
Sea Level Pressure  
Sea Level Pressure 29.97 in    
Wind  
Wind Speed 18 mph (North)    
Max Wind Speed 30 mph    
Max Gust Speed 38 mph    
Visibility 10 miles    
Events Rain    
T = Trace of Precipitation, MM = Missing Value Source: NWS Daily Summary

Daily Weather History Graph

Daily Weather History Graph

Search for Another Location

Airport or City:

Trip Planner

Search our weather history database for the weather conditions in past years. The results will help you decide how hot, cold, wet, or windy it might be!

Date:

Astronomy

Oct. 25, 2011 Rise Set
Actual Time 7:08 AM MDT 5:52 PM MDT
Civil Twilight 6:40 AM MDT 6:20 PM MDT
Nautical Twilight 6:08 AM MDT 6:52 PM MDT
Astronomical Twilight 5:36 AM MDT 7:23 PM MDT
Moon 5:42 AM MDT (10/25) 4:55 PM MDT (10/25)
Length of Visible Light 11h 39m
Length of Day
10h 44m
Waning Crescent, 2% of the Moon is Illuminated
Oct 25
Waning Crescent
Oct 26
New
Nov 2
First Quarter
Nov 10
Full
Nov 18
Last Quarter

Hourly Weather History & Observations

Time (MDT) Temp. Windchill Dew Point Humidity Pressure Visibility Wind Dir Wind Speed Gust Speed Precip Events Conditions
12:53 AM 50.0 °F - 35.1 °F 57% 29.69 in 10.0 mi NW 16.1 mph 25.3 mph N/A   Clear
1:53 AM 52.0 °F - 34.0 °F 50% 29.69 in 10.0 mi NW 11.5 mph - N/A   Clear
2:53 AM 50.0 °F - 34.0 °F 54% 29.69 in 10.0 mi WNW 6.9 mph - N/A   Clear
3:53 AM 52.0 °F - 30.9 °F 45% 29.70 in 10.0 mi NW 17.3 mph 20.7 mph N/A   Clear
4:53 AM 55.0 °F - 30.0 °F 38% 29.73 in 10.0 mi NNW 25.3 mph 34.5 mph N/A   Clear
5:53 AM 48.0 °F - 36.0 °F 63% 29.82 in 10.0 mi NNW 23.0 mph 31.1 mph N/A   Clear
6:53 AM 46.0 °F 38.0 °F 34.0 °F 63% 29.88 in 10.0 mi NNW 21.9 mph 28.8 mph N/A   Clear
7:53 AM 45.0 °F 36.9 °F 33.1 °F 63% 29.93 in 10.0 mi NNW 20.7 mph 34.5 mph N/A   Clear
8:53 AM 46.0 °F 37.4 °F 33.1 °F 61% 29.96 in 10.0 mi NNW 25.3 mph 35.7 mph N/A   Clear
9:53 AM 50.0 °F - 35.1 °F 57% 29.98 in 10.0 mi North 20.7 mph 31.1 mph N/A   Clear
10:53 AM 53.1 °F - 37.0 °F 55% 29.98 in 10.0 mi NNW 17.3 mph - N/A   Clear
11:53 AM 55.9 °F - 37.0 °F 49% 30.00 in 10.0 mi NNW 20.7 mph 27.6 mph N/A   Clear
12:53 PM 57.0 °F - 37.9 °F 49% 29.98 in 10.0 mi NNW 18.4 mph 25.3 mph N/A   Clear
1:53 PM 59.0 °F - 39.0 °F 48% 29.96 in 10.0 mi North 20.7 mph 25.3 mph N/A   Clear
2:53 PM 60.1 °F - 37.0 °F 42% 29.96 in 10.0 mi North 18.4 mph - N/A   Clear
3:53 PM 59.0 °F - 35.1 °F 41% 29.98 in 10.0 mi North 17.3 mph 21.9 mph N/A   Clear
4:53 PM 57.0 °F - 34.0 °F 42% 29.99 in 10.0 mi NNE 18.4 mph - N/A   Clear
5:53 PM 53.1 °F - 34.0 °F 48% 30.05 in 10.0 mi North 15.0 mph - N/A   Clear
6:53 PM 51.1 °F - 34.0 °F 52% 30.08 in 10.0 mi NNE 16.1 mph - N/A   Clear
7:53 PM 48.9 °F - 33.1 °F 54% 30.14 in 10.0 mi NNE 13.8 mph - N/A   Scattered Clouds
8:53 PM 46.9 °F - 36.0 °F 66% 30.17 in 10.0 mi NNE 17.3 mph - N/A   Overcast
9:53 PM 46.0 °F 39.6 °F 36.0 °F 68% 30.19 in 10.0 mi North 15.0 mph - N/A   Overcast
10:35 PM 42.8 °F 35.1 °F 39.2 °F 87% 30.19 in 5.0 mi North 16.1 mph 25.3 mph 0.04 in Rain Rain
10:53 PM 41.0 °F 32.5 °F 39.0 °F 93% 30.21 in 6.0 mi North 17.3 mph - 0.06 in Rain Light Rain
11:53 PM 39.9 °F 31.8 °F 37.0 °F 89% 30.19 in 8.0 mi NNE 15.0 mph - 0.08 in Rain Light Rain